Starlink 11638

operational
NORAD ID: 63269 Int'l Des: 2025-053 Owner: SPXS Country: US Constellation: starlink
LEOCIRCULAR

Über Starlink 11638

Beschreibung wird geladen...

Live-Position

3D-Globus wird geladen...

Nächste Überflüge

Höhenverlauf

Altitude vs Time

uPlot chart will show altitude changes over time

Zweizeiliger Elementsatz

1 63269U 25053E 25260.49709567 .00191630 00000-0 14542-2 0 9991
2 63269 42.9994 75.9211 0005970 288.8232 71.1988 15.70962756 30436
Epoch: 17. Sept. 2025 • Age: 19 hours

Aktueller Status

Höhe 364.5 km
Geschwindigkeit 7.69 km/s
Subsatellitenpunkt -40.19°S, 151.68°W
Startdatum 15. März 2025
Alter 0.5 years
Typ internet

Technische Details

Klassifizierung Payload
Masse 960.00 kg
Trockenmasse 910.00 kg
Gesamtmasse 960.00 kg
Länge 0.30 m
Durchmesser 4.10 m
Spannweite 29.00 m
Form Box + pan
Hersteller SPXS
Bus-Typ Starlink V2MD
Phasenstatus In Orbit
Besitzer/Staat SPXS/US

Große Konstellationen

Loading constellations...